[[{"header":{"parameterUnit":"m.s-1","parameterCategory":1,"la1":30.2992,"la2":30.254,"lo1":-89.0895,"lo2":-89.0443,"dy":0.0025,"dx":0.0025,"nx":19,"ny":19,"refTime":"2026-05-24T21:00:00:Z","depth":0,"parameterNumber":2,"parameterNumberName":"U-component_of_WINDS"},"data":[0,0,0,-3.0661,-3.0664,-3.0811,-3.0812,-3.099,-3.0991,0,0,0,0,0,0,0,0,0,0,0,-3.0607,-3.0607,-3.0661,-3.0664,-3.0811,-3.0812,-3.0989,-3.0991,0,0,0,0,0,0,0,0,0,0,0,-3.0606,-3.0607,-3.0608,-3.0664,-3.0811,-3.0812,-3.0989,-3.0883,0,0,0,0,0,0,0,0,0,0,-3.0741,-3.068,-3.0607,-3.0608,-3.0665,-3.0811,-3.0812,-3.0878,-3.0889,-3.0917,0,-3.0935,0,-3.0966,-3.1002,-3.1003,0,0,0,-3.0673,-3.067,-3.0719,-3.0608,-3.0666,-3.0811,-3.0747,-3.0884,-3.0897,-3.0932,-3.0938,-3.0945,-3.0969,-3.1003,-3.1004,-3.1125,-3.1126,0,0,-3.0665,-3.0628,-3.071,-3.0727,-3.07,-3.0743,-3.0752,-3.0892,-3.0898,-3.0939,-3.0949,-3.0972,-3.1004,-3.1005,-3.1125,-3.1125,0,0,0,-3.0635,-3.0622,-3.0668,-3.0719,-3.0747,-3.0747,-3.0757,-3.0892,-3.091,-3.0952,-3.0974,-3.1005,-3.1007,-3.1125,-3.1125,-3.1096,0,0,0,-3.0631,-3.0605,-3.0664,-3.0643,-3.0744,-3.082,-3.0753,-3.09,-3.0917,-3.0973,-3.1005,-3.1009,-3.1125,-3.1125,-3.1096,-3.1088,0,0,0,-3.0601,-3.0602,-3.0619,-3.0641,-3.0703,-3.0819,-3.0845,-3.0904,-3.093,-3.1003,-3.1009,-3.1125,-3.1125,-3.1097,-3.1089,-3.1109,0,0,0,-3.0559,-3.0593,-3.0618,-3.0665,-3.0701,-3.0798,-3.0845,-3.092,-3.0979,-3.1006,-3.1125,-3.1125,-3.1097,-3.1089,-3.1109,-3.1117,-3.1118,0,0,-3.0581,-3.0594,-3.0625,-3.0652,-3.0734,-3.0779,-3.086,-3.095,-3.0992,-3.1079,-3.1083,-3.1096,-3.1089,-3.1109,-3.1134,-3.1134,0,0,0,-3.062,-3.0641,-3.0671,-3.0723,-3.0791,-3.0849,-3.093,-3.0964,-3.104,-3.1028,-3.111,-3.1107,-3.112,-3.1126,-3.1126,-3.114,-3.1127,-3.1127,-3.1127,-3.0599,-3.0649,-3.0703,-3.077,-3.0821,-3.0904,-3.0951,-3.1011,-3.1049,-3.1067,-3.1093,-3.1102,-3.1108,-3.1108,-3.1121,-3.1103,-3.1103,-3.1103,-3.1103,-3.0636,-3.0674,-3.0721,-3.0789,-3.0843,-3.0903,-3.0986,-3.101,-3.1076,-3.1087,-3.1101,-3.1107,-3.1106,-3.1121,-3.1101,-3.1101,-3.1102,-3.1102,-3.1102,-3.0627,-3.0654,-3.0692,-3.0774,-3.0832,-3.0901,-3.0961,-3.1009,-3.1055,-3.1069,-3.1102,-3.1102,-3.1109,-3.1081,-3.1081,-3.1081,-3.1082,-3.1082,-3.1082,-3.0602,-3.0647,-3.0689,-3.0764,-3.0804,-3.0863,-3.0948,-3.0991,-3.105,-3.1081,-3.1082,-3.1117,-3.1096,-3.1089,-3.1082,-3.1082,-3.1082,-3.1082,-3.1082,-3.0619,-3.0623,-3.0688,-3.0728,-3.082,-3.0875,-3.0936,-3.1018,-3.106,-3.1089,-3.1122,-3.1099,-3.1116,-3.1117,-3.1111,-3.1111,-3.1111,-3.1111,-3.1111,-3.0611,-3.0624,-3.0701,-3.0762,-3.0828,-3.0889,-3.0965,-3.1032,-3.1103,-3.1133,-3.1141,-3.1139,-3.1137,-3.1156,-3.1155,-3.1151,-3.116,-3.116,-3.116,-3.0624,-3.0646,-3.0698,-3.0764,-3.084,-3.0905,-3.0978,-3.1049,-3.1132,-3.1163,-3.1158,-3.1156,-3.1153,-3.1149,-3.1179,-3.1177,-3.117,0,0]},{"header":{"parameterUnit":"m.s-1","parameterCategory":1,"la1":30.2992,"la2":30.254,"lo1":-89.0895,"lo2":-89.0443,"dy":0.0025,"dx":0.0025,"nx":19,"ny":19,"refTime":"2026-05-24T21:00:00:Z","depth":0,"parameterNumber":3,"parameterNumberName":"V-component_of_WINDS"},"data":[0,0,0,5.8283,5.8282,5.8221,5.8221,5.8156,5.8155,0,0,0,0,0,0,0,0,0,0,0,5.8313,5.8313,5.8283,5.8282,5.8221,5.822,5.8156,5.8155,0,0,0,0,0,0,0,0,0,0,0,5.8313,5.8313,5.8313,5.8282,5.8221,5.822,5.8156,5.8196,0,0,0,0,0,0,0,0,0,0,5.8253,5.8294,5.8313,5.8313,5.8281,5.8221,5.822,5.8198,5.8194,5.8191,0,5.8195,0,5.8175,5.8152,5.8152,0,0,0,5.8271,5.8297,5.827,5.8313,5.8281,5.8221,5.8245,5.8195,5.8191,5.8185,5.8194,5.8191,5.8174,5.8152,5.8152,5.8179,5.8179,0,0,5.8275,5.8308,5.8274,5.8268,5.8283,5.8247,5.8244,5.8192,5.8202,5.8193,5.8189,5.8172,5.8152,5.8151,5.8178,5.8179,0,0,0,5.8291,5.8311,5.8284,5.8271,5.826,5.8246,5.8242,5.8204,5.8193,5.8188,5.8172,5.8151,5.8151,5.8177,5.8178,5.8243,0,0,0,5.8293,5.832,5.8286,5.8306,5.8261,5.8232,5.8255,5.8197,5.819,5.8172,5.8151,5.815,5.8177,5.8178,5.824,5.8267,0,0,0,5.8313,5.8322,5.8318,5.8308,5.8283,5.8232,5.8218,5.8195,5.818,5.8152,5.815,5.8176,5.8178,5.8237,5.8262,5.8285,0,0,0,5.8342,5.8374,5.832,5.8348,5.8284,5.8274,5.8218,5.8207,5.8191,5.8151,5.8177,5.8178,5.8236,5.8259,5.8282,5.831,5.8325,0,0,5.84,5.8382,5.8396,5.8346,5.8355,5.828,5.8296,5.8248,5.8212,5.8191,5.8191,5.8241,5.8262,5.8284,5.8398,5.841,0,0,0,5.8425,5.8436,5.8431,5.8419,5.8386,5.8358,5.8305,5.8286,5.8268,5.821,5.8254,5.8265,5.8277,5.8289,5.8299,5.8307,5.8185,5.8185,5.8185,5.8553,5.851,5.8531,5.8481,5.8469,5.8415,5.8401,5.8366,5.8323,5.8334,5.8327,5.8402,5.8418,5.8425,5.8434,5.8339,5.8339,5.8339,5.8339,5.8634,5.8642,5.8588,5.8588,5.8541,5.8539,5.8487,5.8457,5.8446,5.8403,5.8411,5.8369,5.844,5.8445,5.8344,5.8343,5.8342,5.8342,5.8342,5.8713,5.871,5.869,5.867,5.8658,5.8604,5.8598,5.8554,5.8511,5.852,5.8508,5.8506,5.85,5.8517,5.8518,5.8518,5.8518,5.8518,5.8518,5.8804,5.8779,5.8782,5.8751,5.8738,5.8715,5.866,5.8645,5.8616,5.8584,5.8584,5.8539,5.8456,5.8436,5.8522,5.8521,5.8521,5.8521,5.852,5.8902,5.8874,5.8877,5.8865,5.8824,5.8815,5.876,5.8732,5.8713,5.8711,5.8665,5.8611,5.8587,5.8578,5.8562,5.8675,5.8675,5.8675,5.8675,5.897,5.8955,5.8949,5.8932,5.891,5.8861,5.8864,5.8821,5.8772,5.8756,5.8733,5.8707,5.87,5.8681,5.867,5.8653,5.8787,5.8787,5.8787,5.9028,5.9009,5.9022,5.8978,5.8942,5.8912,5.8913,5.8892,5.8829,5.8791,5.8743,5.8738,5.8695,5.8684,5.8645,5.8629,5.8598,0,0]}]]